User: anonymous   Login
Location: Unspecified
(0.0000°N, 0.0000°E)
Time: 23:49:23
(UTC+00:00)
Language:

SPROUT - Orbit

View from above orbital plane
View from above orbital plane
View from above satellite
View from above satellite

Ground track
Ground track

The orbit data is extracted from the following two-line orbital elements,

1 39770U 14029E   17349.51887023  .00000702  00000-0  85318-4 0  9998
2 39770  97.8761  87.1929 0010536  91.8294 268.4142 14.86584027193072
Epoch (UTC): 15 December 2017 12:27:10
Eccentricity: 0.0010536
inclination: 97.8761°
perigee height: 601 km
apogee height: 616 km
right ascension of ascending node: 87.1929°
argument of perigee: 91.8294°
revolutions per day: 14.86584027
mean anomaly at epoch: 268.4142°
orbit number at epoch: 19307

The dashed part of the orbit path shows where the satellite is in the earth's shadow,  

DLR